Shannon, Ireland

8:16 AM IST on October 01, 2016 (GMT +0100)
Shannon

Weather History for EINN - September, 2012

Change the Weather History Date:

Tuesday, September 11, 2012

  Actual Average Record
Temperature  
Mean Temperature 52 °F -  
Max Temperature 57 °F 64 °F 73 °F (2006)
Min Temperature 48 °F 51 °F 41 °F (2002)
Degree Days  
Heating Degree Days 12    
Growing Degree Days 2 (Base 50)    
Moisture  
Dew Point 46 °F    
Average Humidity 80    
Maximum Humidity 94    
Minimum Humidity 57    
Precipitation  
Precipitation 0.02 in - - ()
Sea Level Pressure  
Sea Level Pressure 29.97 in    
Wind  
Wind Speed 11 mph ()    
Max Wind Speed 20 mph    
Max Gust Speed 30 mph    
Visibility 6.7 miles    
Events Rain    
Averages and records for this station are not official NWS values.
T = Trace of Precipitation, MM = Missing Value Source: Averaged Metar Reports

Daily Weather History Graph

Daily Weather History Graph

Search for Another Location

Airport or City:

Trip Planner

Search our weather history database for the weather conditions in past years. The results will help you decide how hot, cold, wet, or windy it might be!

Date:

Astronomy

Sep. 11, 2012 Rise Set
Actual Time 7:03 AM IST 7:59 PM IST
Civil Twilight 6:28 AM IST 8:34 PM IST
Nautical Twilight 5:46 AM IST 9:16 PM IST
Astronomical Twilight 5:01 AM IST 10:01 PM IST
Moon 1:36 AM IST (9/11) 5:28 PM IST (9/11)
Length of Visible Light 14h 05m
Length of Day
12h 56m
Waning Crescent, 23% of the Moon is Illuminated
Sep 11
Waning Crescent
Sep 16
New
Sep 22
First Quarter
Sep 30
Full
Oct 8
Last Quarter

Hourly Weather History & Observations

Time (IST) Temp. Dew Point Humidity Pressure Visibility Wind Dir Wind Speed Gust Speed Precip Events Conditions
12:00 AM 51.8 °F 48.2 °F 88% 29.80 in 6.2 mi WSW 10.4 mph - N/A   Mostly Cloudy
12:30 AM 51.8 °F 46.4 °F 82% 29.80 in 6.2 mi West 11.5 mph - N/A   Mostly Cloudy
1:00 AM 51 °F 48 °F 87% 29.84 in 12 mi West 11.2 mph - - Rain Light Rain Showers
1:00 AM 51.8 °F 48.2 °F 88% 29.83 in 6.2 mi West 10.4 mph - N/A   Scattered Clouds
1:30 AM 50.0 °F 48.2 °F 94% 29.86 in 6.2 mi West 11.5 mph - N/A   Mostly Cloudy
2:00 AM 50.0 °F 46.4 °F 87% 29.86 in 6.2 mi West 10.4 mph - N/A   Scattered Clouds
2:30 AM 50.0 °F 46.4 °F 87% 29.86 in 6.2 mi West 9.2 mph - N/A Rain Light Rain Showers
3:00 AM 50.0 °F 46.4 °F 87% 29.86 in 6.2 mi West 5.8 mph - N/A   Mostly Cloudy
3:30 AM 50.0 °F 46.4 °F 87% 29.86 in 6.2 mi West 10.4 mph - N/A   Scattered Clouds
4:00 AM 51.8 °F 46.4 °F 82% 29.89 in 6.2 mi West 12.7 mph - N/A   Mostly Cloudy
4:30 AM 50.0 °F 46.4 °F 87% 29.89 in 6.2 mi West 12.7 mph - N/A   Scattered Clouds
5:00 AM 50.0 °F 46.4 °F 87% 29.89 in 6.2 mi West 12.7 mph - N/A   Mostly Cloudy
5:30 AM 50.0 °F 46.4 °F 87% 29.89 in 6.2 mi West 9.2 mph - N/A   Mostly Cloudy
6:00 AM 50.0 °F 44.6 °F 82% 29.92 in 6.2 mi NNW 16.1 mph - N/A Rain Light Rain Showers
6:30 AM 48.2 °F 44.6 °F 87% 29.92 in 6.2 mi West 11.5 mph - N/A   Scattered Clouds
7:00 AM 48 °F 44 °F 82% 29.93 in 12 mi WNW 6.7 mph - - Rain Light Rain Showers
7:00 AM 48.2 °F 44.6 °F 87% 29.92 in 6.2 mi WNW 6.9 mph - N/A   Scattered Clouds
7:30 AM 48.2 °F 44.6 °F 87% 29.95 in 6.2 mi West 11.5 mph - N/A   Partly Cloudy
8:00 AM 50.0 °F 44.6 °F 82% 29.95 in 6.2 mi West 10.4 mph - N/A   Partly Cloudy
8:30 AM 51.8 °F 44.6 °F 76% 29.95 in 6.2 mi West 9.2 mph - N/A   Partly Cloudy
9:00 AM 51.8 °F 46.4 °F 82% 29.98 in 6.2 mi WNW 11.5 mph - N/A   Scattered Clouds
9:30 AM 51.8 °F 46.4 °F 82% 29.98 in 6.2 mi West 12.7 mph - N/A   Partly Cloudy
10:00 AM 53.6 °F 44.6 °F 72% 29.98 in 6.2 mi WNW 13.8 mph - N/A   Partly Cloudy
10:30 AM 53.6 °F 46.4 °F 77% 30.01 in 6.2 mi WNW 11.5 mph - N/A   Scattered Clouds
11:00 AM 55.4 °F 42.8 °F 63% 30.01 in 6.2 mi WNW 13.8 mph - N/A   Scattered Clouds
11:30 AM 55.4 °F 44.6 °F 67% 30.01 in 6.2 mi NW 13.8 mph 29.9 mph N/A Rain Light Rain Showers
12:00 PM 55.4 °F 42.8 °F 63% 30.01 in 6.2 mi West 17.3 mph - N/A   Mostly Cloudy
12:30 PM 51.8 °F 48.2 °F 88% 30.04 in 6.2 mi WNW 16.1 mph - N/A   Mostly Cloudy
1:00 PM 57 °F 46 °F 57% 30.05 in 16 mi West 20.1 mph - - Rain Light Rain Showers
1:00 PM 57.2 °F 46.4 °F 67% 30.04 in 6.2 mi West 19.6 mph - N/A   Mostly Cloudy
1:30 PM 57.2 °F 44.6 °F 63% 30.04 in 6.2 mi WNW 18.4 mph - N/A   Mostly Cloudy
2:00 PM 55.4 °F 44.6 °F 67% 30.06 in 6.2 mi West 19.6 mph - N/A   Mostly Cloudy
2:30 PM 55.4 °F 44.6 °F 67% 30.06 in 6.2 mi West 15.0 mph - N/A   Mostly Cloudy
3:00 PM 57.2 °F 42.8 °F 59% 30.06 in 6.2 mi West 17.3 mph - N/A   Mostly Cloudy
3:30 PM 55.4 °F 42.8 °F 63% 30.04 in 6.2 mi West 18.4 mph - N/A   Mostly Cloudy
4:00 PM 55.4 °F 44.6 °F 67% 30.04 in 6.2 mi West 13.8 mph - N/A   Mostly Cloudy
4:30 PM 55.4 °F 46.4 °F 72% 30.04 in 6.2 mi West 13.8 mph - N/A   Mostly Cloudy
5:00 PM 55.4 °F 44.6 °F 67% 30.04 in 6.2 mi West 13.8 mph - N/A   Mostly Cloudy
5:30 PM 55.4 °F 46.4 °F 72% 30.04 in 6.2 mi WSW 10.4 mph - N/A   Mostly Cloudy
6:00 PM 55.4 °F 46.4 °F 72% 30.04 in 6.2 mi West 12.7 mph - N/A   Mostly Cloudy
6:30 PM 53.6 °F 46.4 °F 77% 30.04 in 6.2 mi West 8.1 mph - N/A Rain Light Rain Showers
7:00 PM 54 °F 46 °F 68% 30.05 in 11 mi West 13.4 mph - - Rain Light Rain Showers
7:00 PM 53.6 °F 46.4 °F 77% 30.04 in 6.2 mi West 13.8 mph - N/A   Mostly Cloudy
7:30 PM 53.6 °F 48.2 °F 82% 30.04 in 6.2 mi West 12.7 mph - N/A Rain Light Rain
8:00 PM 51.8 °F 48.2 °F 88% 30.04 in 6.2 mi WSW 13.8 mph - N/A Rain Light Rain
8:30 PM 51.8 °F 48.2 °F 88% 30.04 in 6.2 mi WSW 12.7 mph - N/A Rain Light Rain
9:00 PM 51.8 °F 50.0 °F 94% 30.04 in 6.2 mi WSW 12.7 mph - N/A Rain Light Rain
9:30 PM 51.8 °F 50.0 °F 94% 30.04 in 6.2 mi WSW 10.4 mph - N/A Rain Light Rain
10:00 PM 51.8 °F 50.0 °F 94% 30.04 in 6.2 mi SSW 8.1 mph - N/A   Mostly Cloudy
10:30 PM 51.8 °F 50.0 °F 94% 30.01 in 6.2 mi SW 10.4 mph - N/A   Mostly Cloudy
11:00 PM 51.8 °F 50.0 °F 94% 30.04 in 6.2 mi SSW 8.1 mph - N/A   Mostly Cloudy
11:30 PM 51.8 °F 50.0 °F 94% 30.01 in 6.2 mi SSW 6.9 mph - N/A   Mostly Cloudy